Regional Weather Roundup
Issued by NWS

Home | Current Version | Previous Version | Graphics & Text | Print | Product List | Glossary On
Versions: 1 2 3 4 5 6 7 8 9 10 11 12 13 14 15 16 17 18 19 20 21 22 23 24 25 26 27 28 29 30 31 32 33 34 35 36 37 38 39 40 41 42 43 44 45 46 47 48 49 50
000
ASUS43 KBIS 270910
RWRND

NORTH DAKOTA REGIONAL WEATHER ROUNDUP
NATIONAL WEATHER SERVICE BISMARCK ND
400 AM CDT WED AUG 27 2014

NOTE: "FAIR" INDICATES FEW OR NO CLOUDS BELOW 12,000 FEET WITH NO
SIGNIFICANT WEATHER AND/OR OBSTRUCTIONS TO VISIBILITY.


NDZ001>003-009>011-017-271000-
NORTHWEST NORTH DAKOTA

CITY           SKY/WX    TMP DP  RH WIND       PRES   REMARKS
WILLISTON      CLEAR     55  52  89 S3        30.12S
MINOT          CLEAR     55  51  86 S8        30.14S
MINOT AFB      CLEAR     52  51  99 SW6       30.13S
$$

NDZ018>021-031>035-040>046-271000-
SOUTHWEST NORTH DAKOTA

CITY           SKY/WX    TMP DP  RH WIND       PRES   REMARKS
BISMARCK       FOG       48  48 100 SE3       30.18S VSB 1/4
DICKINSON      CLEAR     49  47  93 S7        30.15S
GARRISON         N/A     50  50 100 S3        30.15F
HETTINGER ARPT MOCLDY    45  44  97 NE3       30.16F FOG
$$

NDZ004>008-012>016-024-026-027-054-271000-
NORTHEAST NORTH DAKOTA

CITY           SKY/WX    TMP DP  RH WIND       PRES   REMARKS
GRAND FORKS    CLEAR     49  48  97 S3        30.16S
GRND FRKS AFB  CLEAR     52  51  99 W2        30.17R
DEVILS LAKE    CLEAR     57  48  72 SW7       30.15S
$$

NDZ022-023-025-028>030-036>039-047>053-271000-
SOUTHEAST NORTH DAKOTA

CITY           SKY/WX    TMP DP  RH WIND       PRES   REMARKS
FARGO          FOG       51  51 100 S3        30.18S VSB 1/4
JAMESTOWN      FOG       49  48  97 CALM      30.18F VSB 1/4
$$



USA.gov is the U.S. government's official web portal to all federal, state and local government web resources and services.